| time (UTC) | temp C | wind direction | speed KPH | gust KPH | rain 1hr cm | rain 24hr cm | rain mn cm | humidity % | barometer mb |
| 20260506042703 | 13 | 123 | 0.0 | 1.6 | 0.00 | 0.03 | 0.03 | 84 | 1024.4 |
| 20260506042201 | 13 | 164 | 1.6 | 1.6 | 0.00 | 0.03 | 0.03 | 84 | 1024.2 |
| 20260506041659 | 13 | 127 | 1.6 | 3.2 | 0.00 | 0.03 | 0.03 | 84 | 1024.5 |
| 20260506041155 | 13 | 186 | 3.2 | 4.8 | 0.00 | 0.03 | 0.03 | 84 | 1024.2 |
| 20260506040653 | 13 | 164 | 3.2 | 4.8 | 0.00 | 0.03 | 0.03 | 84 | 1024.2 |
| 20260506040150 | 13 | 220 | 8.0 | 11.3 | 0.00 | 0.03 | 0.03 | 83 | 1024.1 |
| 20260506035647 | 13 | 177 | 3.2 | 3.2 | 0.00 | 0.03 | 0.03 | 83 | 1023.9 |
| 20260506035143 | 13 | 85 | 0.0 | 0.0 | 0.00 | 0.03 | 0.03 | 84 | 1023.8 |
| 20260506034635 | 13 | 229 | 1.6 | 3.2 | 0.00 | 0.03 | 0.03 | 84 | 1024.1 |
| 20260506034132 | 13 | 195 | 1.6 | 3.2 | 0.00 | 0.03 | 0.03 | 84 | 1023.9 |
| 20260506033629 | 13 | 122 | 1.6 | 1.6 | 0.00 | 0.03 | 0.03 | 84 | 1023.7 |
| 20260506033126 | 13 | 220 | 8.0 | 11.3 | 0.00 | 0.03 | 0.03 | 84 | 1023.6 |
| 20260506032623 | 13 | 215 | 3.2 | 4.8 | 0.00 | 0.03 | 0.03 | 84 | 1023.7 |
| 20260506032120 | 13 | 205 | 3.2 | 3.2 | 0.00 | 0.03 | 0.03 | 84 | 1023.7 |
| 20260506031617 | 13 | 202 | 4.8 | 6.4 | 0.00 | 0.03 | 0.03 | 84 | 1023.6 |
| 20260506031114 | 13 | 69 | 0.0 | 1.6 | 0.00 | 0.03 | 0.03 | 83 | 1023.5 |
| 20260506030613 | 13 | 152 | 1.6 | 3.2 | 0.00 | 0.03 | 0.03 | 83 | 1023.6 |
| 20260506030109 | 13 | 213 | 4.8 | 9.7 | 0.00 | 0.03 | 0.03 | 83 | 1023.6 |
| 20260506025606 | 13 | 221 | 4.8 | 6.4 | 0.00 | 0.03 | 0.03 | 83 | 1023.4 |
| 20260506025102 | 13 | 191 | 3.2 | 6.4 | 0.00 | 0.03 | 0.03 | 83 | 1023.3 |
| 20260506024559 | 13 | 236 | 3.2 | 3.2 | 0.00 | 0.03 | 0.03 | 83 | 1023.3 |
| 20260506024050 | 13 | 207 | 3.2 | 4.8 | 0.00 | 0.03 | 0.03 | 83 | 1023.2 |
| 20260506023546 | 13 | 253 | 3.2 | 4.8 | 0.00 | 0.03 | 0.03 | 83 | 1023.1 |
| 20260506023043 | 14 | 245 | 6.4 | 9.7 | 0.00 | 0.03 | 0.03 | 83 | 1023.0 |
| 20260506022541 | 14 | 184 | 3.2 | 4.8 | 0.00 | 0.03 | 0.03 | 82 | 1023.1 |
| 20260506022039 | 15 | 238 | 3.2 | 4.8 | 0.00 | 0.03 | 0.03 | 82 | 1023.1 |
| 20260506021536 | 15 | 123 | 3.2 | 3.2 | 0.00 | 0.03 | 0.03 | 81 | 1023.2 |
| 20260506021033 | 15 | 199 | 3.2 | 6.4 | 0.00 | 0.03 | 0.03 | 81 | 1023.2 |
| 20260506020531 | 15 | 266 | 6.4 | 9.7 | 0.00 | 0.03 | 0.03 | 79 | 1023.2 |
| 20260506020028 | 15 | 188 | 3.2 | 4.8 | 0.00 | 0.03 | 0.03 | 79 | 1023.0 |
| 20260506015525 | 15 | 260 | 6.4 | 9.7 | 0.00 | 0.03 | 0.03 | 78 | 1023.1 |
| 20260506015022 | 15 | 186 | 4.8 | 4.8 | 0.00 | 0.03 | 0.03 | 77 | 1023.0 |
| 20260506014519 | 15 | 91 | 1.6 | 1.6 | 0.00 | 0.03 | 0.03 | 79 | 1023.0 |
| 20260506014015 | 15 | 238 | 4.8 | 9.7 | 0.00 | 0.03 | 0.03 | 78 | 1023.0 |
| 20260506013513 | 15 | 196 | 3.2 | 4.8 | 0.00 | 0.03 | 0.03 | 78 | 1023.1 |
| 20260506013010 | 15 | 186 | 4.8 | 4.8 | 0.00 | 0.03 | 0.03 | 78 | 1023.1 |
| 20260506012506 | 15 | 128 | 6.4 | 11.3 | 0.00 | 0.03 | 0.03 | 78 | 1023.0 |
| 20260506012003 | 15 | 214 | 3.2 | 4.8 | 0.00 | 0.03 | 0.03 | 78 | 1023.2 |
| 20260506011501 | 15 | 167 | 1.6 | 1.6 | 0.00 | 0.03 | 0.03 | 77 | 1023.0 |
| 20260506010956 | 15 | 220 | 3.2 | 4.8 | 0.00 | 0.03 | 0.03 | 77 | 1023.2 |
| 20260506010456 | 15 | 231 | 6.4 | 6.4 | 0.00 | 0.03 | 0.03 | 78 | 1023.0 |
| 20260506005951 | 15 | 111 | 1.6 | 3.2 | 0.00 | 0.03 | 0.03 | 78 | 1022.8 |
| 20260506005449 | 15 | 228 | 4.8 | 4.8 | 0.00 | 0.03 | 0.03 | 77 | 1022.9 |
| 20260506004944 | 15 | 276 | 6.4 | 11.3 | 0.00 | 0.03 | 0.03 | 77 | 1022.8 |
| 20260506004443 | 16 | 209 | 8.0 | 11.3 | 0.00 | 0.03 | 0.03 | 76 | 1022.9 |
| 20260506003938 | 15 | 196 | 3.2 | 3.2 | 0.00 | 0.03 | 0.03 | 76 | 1022.9 |
| 20260506003434 | 15 | 125 | 1.6 | 1.6 | 0.00 | 0.03 | 0.03 | 77 | 1022.7 |
| 20260506002926 | 15 | 131 | 3.2 | 3.2 | 0.00 | 0.03 | 0.03 | 77 | 1022.7 |
| 20260506002422 | 15 | 187 | 4.8 | 4.8 | 0.00 | 0.03 | 0.03 | 77 | 1022.7 |
| 20260506001917 | 15 | 266 | 6.4 | 12.9 | 0.00 | 0.03 | 0.03 | 77 | 1022.8 |
| 20260506001414 | 15 | 210 | 4.8 | 6.4 | 0.00 | 0.03 | 0.03 | 78 | 1022.6 |
| 20260506000912 | 15 | 198 | 4.8 | 9.7 | 0.00 | 0.03 | 0.03 | 77 | 1022.5 |
| 20260506000409 | 15 | 225 | 9.7 | 14.5 | 0.00 | 0.03 | 0.03 | 77 | 1022.5 |
| 20260505235906 | 15 | 159 | 3.2 | 3.2 | 0.00 | 0.03 | 0.03 | 78 | 1022.7 |
| 20260505235404 | 16 | 213 | 6.4 | 9.7 | 0.00 | 0.03 | 0.03 | 76 | 1022.6 |
| 20260505234901 | 15 | 222 | 8.0 | 11.3 | 0.00 | 0.03 | 0.03 | 78 | 1022.6 |
| 20260505234358 | 15 | 217 | 3.2 | 4.8 | 0.00 | 0.03 | 0.03 | 78 | 1022.9 |
| 20260505233854 | 15 | 188 | 6.4 | 9.7 | 0.00 | 0.03 | 0.03 | 78 | 1022.5 |
| 20260505233352 | 15 | 188 | 3.2 | 3.2 | 0.00 | 0.03 | 0.03 | 79 | 1022.7 |
| 20260505232850 | 15 | 262 | 4.8 | 6.4 | 0.00 | 0.03 | 0.03 | 79 | 1022.9 |
| 20260505232348 | 15 | 248 | 3.2 | 4.8 | 0.00 | 0.03 | 0.03 | 79 | 1022.8 |
| 20260505231844 | 15 | 176 | 9.7 | 12.9 | 0.00 | 0.03 | 0.03 | 78 | 1022.9 |
| 20260505231342 | 15 | 195 | 9.7 | 17.7 | 0.00 | 0.03 | 0.03 | 79 | 1022.8 |
| 20260505230840 | 15 | 110 | 3.2 | 6.4 | 0.00 | 0.03 | 0.03 | 79 | 1022.9 |
| 20260505230336 | 15 | 235 | 9.7 | 17.7 | 0.00 | 0.03 | 0.03 | 78 | 1022.8 |
| 20260505225833 | 15 | 173 | 1.6 | 1.6 | 0.00 | 0.03 | 0.03 | 79 | 1022.9 |
| 20260505225330 | 15 | 213 | 9.7 | 17.7 | 0.00 | 0.03 | 0.03 | 78 | 1022.6 |
| 20260505224825 | 15 | 183 | 4.8 | 4.8 | 0.00 | 0.03 | 0.03 | 79 | 1022.9 |
| 20260505224324 | 15 | 235 | 4.8 | 4.8 | 0.00 | 0.03 | 0.03 | 78 | 1022.8 |
| 20260505223820 | 15 | 172 | 6.4 | 9.7 | 0.00 | 0.03 | 0.03 | 78 | 1022.9 |
| 20260505223317 | 15 | 174 | 3.2 | 3.2 | 0.00 | 0.03 | 0.03 | 79 | 1022.9 |
| 20260505222813 | 15 | 333 | 4.8 | 4.8 | 0.00 | 0.03 | 0.03 | 79 | 1023.0 |
| 20260505222309 | 15 | 246 | 6.4 | 6.4 | 0.00 | 0.03 | 0.03 | 79 | 1023.0 |
| 20260505221806 | 15 | 227 | 4.8 | 4.8 | 0.00 | 0.03 | 0.03 | 79 | 1023.0 |
| 20260505221303 | 15 | 184 | 4.8 | 6.4 | 0.00 | 0.03 | 0.03 | 78 | 1022.8 |
| 20260505220800 | 15 | 216 | 9.7 | 14.5 | 0.00 | 0.03 | 0.03 | 77 | 1023.0 |
| 20260505220257 | 16 | 130 | 0.0 | 0.0 | 0.00 | 0.03 | 0.03 | 76 | 1022.8 |
| 20260505215755 | 16 | 226 | 3.2 | 4.8 | 0.00 | 0.03 | 0.03 | 76 | 1023.0 |
| 20260505215253 | 16 | 139 | 1.6 | 3.2 | 0.00 | 0.03 | 0.03 | 75 | 1023.0 |
| 20260505214750 | 16 | 238 | 4.8 | 9.7 | 0.00 | 0.03 | 0.03 | 75 | 1022.8 |
| 20260505214247 | 16 | 197 | 4.8 | 6.4 | 0.00 | 0.03 | 0.03 | 74 | 1023.2 |
| 20260505213744 | 15 | 146 | 0.0 | 1.6 | 0.00 | 0.03 | 0.03 | 76 | 1023.0 |
| 20260505213242 | 15 | 269 | 6.4 | 9.7 | 0.00 | 0.03 | 0.03 | 76 | 1023.3 |
| 20260505212737 | 15 | 128 | 0.0 | 1.6 | 0.00 | 0.03 | 0.03 | 76 | 1023.1 |
| 20260505212235 | 15 | 229 | 11.3 | 12.9 | 0.00 | 0.03 | 0.03 | 76 | 1023.1 |
| 20260505211732 | 15 | 192 | 4.8 | 4.8 | 0.00 | 0.03 | 0.03 | 76 | 1023.2 |
| 20260505211229 | 15 | 202 | 1.6 | 3.2 | 0.00 | 0.03 | 0.03 | 76 | 1023.2 |
| 20260505210725 | 15 | 169 | 6.4 | 9.7 | 0.00 | 0.03 | 0.03 | 76 | 1023.2 |
| 20260505210222 | 15 | 127 | 1.6 | 3.2 | 0.00 | 0.03 | 0.03 | 76 | 1023.2 |
| 20260505205720 | 15 | 173 | 1.6 | 3.2 | 0.00 | 0.03 | 0.03 | 77 | 1022.9 |
| 20260505205218 | 15 | 195 | 4.8 | 9.7 | 0.00 | 0.03 | 0.03 | 76 | 1023.2 |
| 20260505204715 | 15 | 228 | 4.8 | 4.8 | 0.00 | 0.03 | 0.03 | 76 | 1023.1 |
| 20260505204213 | 15 | 243 | 3.2 | 3.2 | 0.00 | 0.03 | 0.03 | 77 | 1023.0 |
| 20260505203709 | 15 | 182 | 3.2 | 6.4 | 0.00 | 0.03 | 0.03 | 77 | 1023.1 |
| 20260505203206 | 15 | 221 | 3.2 | 3.2 | 0.00 | 0.03 | 0.03 | 77 | 1023.0 |
| 20260505202701 | 15 | 205 | 6.4 | 11.3 | 0.00 | 0.03 | 0.03 | 76 | 1023.0 |
| 20260505202158 | 15 | 142 | 0.0 | 1.6 | 0.00 | 0.03 | 0.03 | 77 | 1022.9 |
| 20260505201654 | 15 | 200 | 6.4 | 11.3 | 0.00 | 0.03 | 0.03 | 77 | 1023.2 |
| 20260505201153 | 15 | 187 | 3.2 | 6.4 | 0.00 | 0.03 | 0.03 | 77 | 1023.2 |
| 20260505200650 | 15 | 158 | 3.2 | 3.2 | 0.00 | 0.03 | 0.03 | 77 | 1023.1 |
| 20260505200147 | 15 | 294 | 3.2 | 3.2 | 0.00 | 0.03 | 0.03 | 78 | 1023.3 |
| 20260505195642 | 15 | 318 | 3.2 | 3.2 | 0.00 | 0.03 | 0.03 | 76 | 1023.3 |
| 20260505195140 | 16 | 13 | 3.2 | 3.2 | 0.00 | 0.03 | 0.03 | 76 | 1023.2 |
| 20260505194637 | 16 | 71 | 0.0 | 1.6 | 0.00 | 0.03 | 0.03 | 76 | 1023.3 |
| 20260505194133 | 15 | 138 | 1.6 | 1.6 | 0.00 | 0.03 | 0.03 | 77 | 1023.2 |
| 20260505193630 | 15 | 23 | 3.2 | 4.8 | 0.00 | 0.03 | 0.03 | 77 | 1023.3 |
| 20260505193127 | 15 | 66 | 0.0 | 0.0 | 0.00 | 0.03 | 0.03 | 79 | 1023.3 |
| 20260505192626 | 15 | 122 | 3.2 | 3.2 | 0.00 | 0.03 | 0.03 | 79 | 1023.3 |
| 20260505192123 | 15 | 99 | 1.6 | 1.6 | 0.00 | 0.03 | 0.03 | 80 | 1023.4 |
| 20260505191621 | 15 | 34 | 1.6 | 1.6 | 0.00 | 0.03 | 0.03 | 79 | 1023.4 |
| 20260505191119 | 15 | 149 | 1.6 | 3.2 | 0.00 | 0.03 | 0.03 | 78 | 1023.4 |
| 20260505190614 | 15 | 85 | 0.0 | 1.6 | 0.00 | 0.03 | 0.03 | 78 | 1023.1 |
| 20260505190109 | 15 | 84 | 0.0 | 0.0 | 0.00 | 0.03 | 0.03 | 78 | 1023.3 |
| 20260505185607 | 15 | 60 | 3.2 | 4.8 | 0.00 | 0.03 | 0.03 | 80 | 1023.1 |
| 20260505185103 | 15 | 69 | 1.6 | 1.6 | 0.00 | 0.03 | 0.03 | 81 | 1023.2 |
| 20260505184559 | 14 | 93 | 3.2 | 4.8 | 0.00 | 0.03 | 0.03 | 81 | 1023.2 |
| 20260505184056 | 15 | 209 | 6.4 | 11.3 | 0.00 | 0.03 | 0.03 | 82 | 1023.3 |
| 20260505183553 | 14 | 110 | 0.0 | 1.6 | 0.00 | 0.03 | 0.03 | 84 | 1023.0 |
| 20260505183051 | 14 | 181 | 1.6 | 3.2 | 0.00 | 0.03 | 0.03 | 83 | 1023.3 |
| 20260505182546 | 13 | 135 | 1.6 | 1.6 | 0.00 | 0.03 | 0.03 | 85 | 1023.4 |
| 20260505182043 | 13 | 152 | 3.2 | 3.2 | 0.00 | 0.03 | 0.03 | 85 | 1023.2 |
| 20260505181540 | 13 | 102 | 0.0 | 0.0 | 0.00 | 0.03 | 0.03 | 86 | 1023.2 |
| 20260505181038 | 13 | 246 | 3.2 | 4.8 | 0.00 | 0.03 | 0.03 | 87 | 1023.2 |
| 20260505180533 | 13 | 137 | 0.0 | 1.6 | 0.00 | 0.03 | 0.03 | 87 | 1023.1 |
| 20260505180032 | 13 | 167 | 3.2 | 6.4 | 0.00 | 0.03 | 0.03 | 87 | 1023.3 |
| 20260505175531 | 13 | 150 | 0.0 | 1.6 | 0.00 | 0.03 | 0.03 | 88 | 1023.1 |
| 20260505175029 | 13 | 158 | 1.6 | 1.6 | 0.00 | 0.03 | 0.03 | 88 | 1023.1 |
| 20260505174526 | 13 | 196 | 3.2 | 3.2 | 0.00 | 0.03 | 0.03 | 88 | 1023.0 |
| 20260505174022 | 12 | 178 | 3.2 | 4.8 | 0.00 | 0.03 | 0.03 | 89 | 1022.8 |
| 20260505173519 | 12 | 232 | 6.4 | 9.7 | 0.00 | 0.03 | 0.03 | 89 | 1022.9 |
| 20260505173015 | 12 | 206 | 3.2 | 3.2 | 0.00 | 0.03 | 0.03 | 89 | 1022.9 |
| 20260505172514 | 12 | 216 | 4.8 | 4.8 | 0.00 | 0.03 | 0.03 | 89 | 1022.9 |
| 20260505172009 | 12 | 182 | 3.2 | 4.8 | 0.00 | 0.03 | 0.03 | 89 | 1022.9 |
| 20260505171505 | 12 | 132 | 0.0 | 1.6 | 0.00 | 0.03 | 0.03 | 90 | 1022.7 |
| 20260505171002 | 12 | 133 | 0.0 | 0.0 | 0.00 | 0.03 | 0.03 | 90 | 1022.8 |
| 20260505170459 | 12 | 229 | 3.2 | 3.2 | 0.00 | 0.03 | 0.03 | 90 | 1022.9 |
| 20260505165954 | 12 | 129 | 0.0 | 1.6 | 0.00 | 0.03 | 0.03 | 91 | 1022.8 |
| 20260505165450 | 12 | 219 | 1.6 | 1.6 | 0.00 | 0.03 | 0.03 | 91 | 1022.8 |
| 20260505164946 | 12 | 88 | 0.0 | 1.6 | 0.00 | 0.03 | 0.03 | 90 | 1022.7 |
| 20260505164442 | 12 | 43 | 1.6 | 3.2 | 0.00 | 0.03 | 0.03 | 89 | 1022.9 |
| 20260505163940 | 12 | 130 | 3.2 | 4.8 | 0.00 | 0.03 | 0.03 | 89 | 1022.8 |
| 20260505163439 | 12 | 62 | 0.0 | 0.0 | 0.00 | 0.03 | 0.03 | 89 | 1022.7 |
| 20260505162937 | 12 | 98 | 0.0 | 1.6 | 0.00 | 0.03 | 0.03 | 89 | 1022.7 |
| 20260505162432 | 12 | 150 | 1.6 | 1.6 | 0.00 | 0.03 | 0.03 | 89 | 1022.6 |
| 20260505161930 | 12 | 148 | 0.0 | 1.6 | 0.00 | 0.03 | 0.03 | 89 | 1022.5 |
| 20260505161421 | 12 | 169 | 4.8 | 6.4 | 0.00 | 0.03 | 0.03 | 89 | 1022.8 |
| 20260505160919 | 12 | 121 | 0.0 | 0.0 | 0.00 | 0.03 | 0.03 | 89 | 1022.5 |
| 20260505160416 | 12 | 140 | 1.6 | 3.2 | 0.00 | 0.03 | 0.03 | 89 | 1022.3 |
| 20260505153356 | 12 | 95 | 0.0 | 0.0 | 0.00 | 0.03 | 0.03 | 90 | 1022.5 |
| 20260505152852 | 12 | 208 | 3.2 | 4.8 | 0.00 | 0.03 | 0.03 | 89 | 1022.3 |
| 20260505152349 | 12 | 186 | 3.2 | 3.2 | 0.00 | 0.03 | 0.03 | 89 | 1022.4 |
| 20260505151844 | 12 | 253 | 4.8 | 4.8 | 0.00 | 0.03 | 0.03 | 89 | 1022.0 |
| 20260505151340 | 12 | 67 | 1.6 | 3.2 | 0.00 | 0.03 | 0.03 | 89 | 1022.1 |
| 20260505150837 | 11 | 171 | 3.2 | 4.8 | 0.00 | 0.03 | 0.03 | 90 | 1022.3 |
| 20260505150335 | 11 | 148 | 1.6 | 3.2 | 0.00 | 0.03 | 0.03 | 90 | 1022.2 |
| 20260505140259 | 11 | 86 | 0.0 | 0.0 | 0.00 | 0.03 | 0.03 | 91 | 1021.8 |
| 20260505130223 | 10 | 131 | 0.0 | 0.0 | 0.00 | 0.03 | 0.03 | 94 | 1021.6 |
| 20260505124713 | 10 | 127 | 0.0 | 0.0 | 0.00 | 0.03 | 0.03 | 93 | 1021.8 |
| 20260505124210 | 10 | 127 | 0.0 | 0.0 | 0.00 | 0.03 | 0.03 | 93 | 1021.9 |
| 20260505123705 | 10 | 117 | 0.0 | 0.0 | 0.00 | 0.03 | 0.03 | 93 | 1021.8 |
| 20260505123202 | 10 | 80 | 0.0 | 0.0 | 0.00 | 0.03 | 0.03 | 93 | 1021.8 |
| 20260505122658 | 10 | 70 | 0.0 | 0.0 | 0.00 | 0.03 | 0.03 | 94 | 1021.6 |
| 20260505122155 | 10 | 70 | 0.0 | 0.0 | 0.00 | 0.03 | 0.03 | 94 | 1021.6 |
| 20260505121647 | 10 | 76 | 0.0 | 0.0 | 0.00 | 0.03 | 0.03 | 94 | 1021.5 |
| 20260505121143 | 10 | 183 | 0.0 | 0.0 | 0.00 | 0.03 | 0.03 | 94 | 1021.5 |
| 20260505120639 | 10 | 132 | 0.0 | 0.0 | 0.00 | 0.03 | 0.03 | 94 | 1021.3 |
| 20260505120135 | 10 | 71 | 0.0 | 0.0 | 0.00 | 0.03 | 0.03 | 93 | 1021.4 |
| 20260505115629 | 10 | 69 | 0.0 | 0.0 | 0.00 | 0.03 | 0.03 | 93 | 1021.4 |
| 20260505115127 | 10 | 75 | 0.0 | 0.0 | 0.00 | 0.03 | 0.03 | 93 | 1021.9 |
| 20260505114618 | 10 | 77 | 0.0 | 0.0 | 0.00 | 0.03 | 0.03 | 93 | 1021.8 |
| 20260505114115 | 10 | 84 | 0.0 | 0.0 | 0.00 | 0.03 | 0.03 | 93 | 1021.5 |
| 20260505113611 | 10 | 73 | 0.0 | 0.0 | 0.00 | 0.03 | 0.03 | 92 | 1022.0 |
| 20260505113107 | 10 | 83 | 0.0 | 0.0 | 0.00 | 0.03 | 0.03 | 92 | 1021.9 |
| 20260505112603 | 10 | 84 | 0.0 | 0.0 | 0.00 | 0.03 | 0.03 | 92 | 1022.0 |
| 20260505112103 | 10 | 119 | 0.0 | 1.6 | 0.00 | 0.03 | 0.03 | 92 | 1021.9 |
| 20260505111601 | 11 | 112 | 0.0 | 0.0 | 0.00 | 0.03 | 0.03 | 92 | 1021.6 |
| 20260505111057 | 11 | 114 | 0.0 | 0.0 | 0.00 | 0.03 | 0.03 | 91 | 1021.9 |
| 20260505110554 | 10 | 78 | 0.0 | 0.0 | 0.00 | 0.03 | 0.03 | 91 | 1021.8 |
| 20260505102027 | 10 | 129 | 0.0 | 0.0 | 0.00 | 0.00 | 0.00 | 90 | 1021.6 |
| 20260505101525 | 10 | 215 | 3.2 | 4.8 | 0.00 | 0.00 | 0.00 | 90 | 1021.6 |
| 20260505101021 | 11 | 135 | 0.0 | 0.0 | 0.00 | 0.00 | 0.00 | 90 | 1021.8 |
| 20260505100518 | 11 | 104 | 0.0 | 0.0 | 0.00 | 0.00 | 0.00 | 89 | 1021.8 |
| 20260505100015 | 11 | 207 | 1.6 | 3.2 | 0.00 | 0.00 | 0.00 | 89 | 1021.5 |
| 20260505095511 | 11 | 164 | 1.6 | 3.2 | 0.00 | 0.00 | 0.00 | 88 | 1021.8 |
| 20260505095007 | 11 | 150 | 1.6 | 1.6 | 0.00 | 0.00 | 0.00 | 88 | 1021.6 |
| 20260505094504 | 11 | 126 | 1.6 | 3.2 | 0.00 | 0.00 | 0.00 | 88 | 1021.9 |
| 20260505094000 | 10 | 138 | 0.0 | 0.0 | 0.00 | 0.00 | 0.00 | 88 | 1022.2 |
| 20260505093457 | 11 | 121 | 0.0 | 0.0 | 0.00 | 0.00 | 0.00 | 88 | 1021.9 |
| 20260505092954 | 11 | 207 | 0.0 | 1.6 | 0.00 | 0.00 | 0.00 | 88 | 1022.1 |
| 20260505092452 | 11 | 189 | 1.6 | 3.2 | 0.00 | 0.00 | 0.00 | 88 | 1022.1 |
| 20260505091949 | 11 | 224 | 3.2 | 3.2 | 0.00 | 0.00 | 0.00 | 88 | 1022.3 |
| 20260505091447 | 10 | 254 | 0.0 | 1.6 | 0.00 | 0.00 | 0.00 | 88 | 1022.2 |
| 20260505090944 | 10 | 164 | 0.0 | 1.6 | 0.00 | 0.00 | 0.00 | 88 | 1022.2 |
| 20260505090443 | 11 | 219 | 1.6 | 3.2 | 0.00 | 0.00 | 0.00 | 88 | 1022.3 |
| 20260505085939 | 11 | 147 | 0.0 | 1.6 | 0.00 | 0.00 | 0.00 | 87 | 1022.4 |
| 20260505085437 | 11 | 167 | 0.0 | 0.0 | 0.00 | 0.00 | 0.00 | 87 | 1022.3 |
| 20260505084935 | 11 | 135 | 0.0 | 0.0 | 0.00 | 0.00 | 0.00 | 86 | 1022.5 |
| 20260505084434 | 11 | 125 | 0.0 | 0.0 | 0.00 | 0.00 | 0.00 | 86 | 1022.5 |
| 20260505083931 | 11 | 121 | 0.0 | 0.0 | 0.00 | 0.00 | 0.00 | 87 | 1022.5 |
| 20260505083428 | 11 | 164 | 1.6 | 1.6 | 0.00 | 0.00 | 0.00 | 87 | 1022.3 |
| 20260505082924 | 10 | 133 | 0.0 | 1.6 | 0.00 | 0.00 | 0.00 | 88 | 1022.4 |
| 20260505082420 | 10 | 119 | 0.0 | 0.0 | 0.00 | 0.00 | 0.00 | 87 | 1022.4 |
| 20260505081917 | 10 | 184 | 1.6 | 1.6 | 0.00 | 0.00 | 0.00 | 87 | 1022.4 |
| 20260505081414 | 10 | 213 | 3.2 | 3.2 | 0.00 | 0.00 | 0.00 | 88 | 1022.6 |
| 20260505080911 | 10 | 171 | 3.2 | 3.2 | 0.00 | 0.00 | 0.00 | 88 | 1022.7 |
| 20260505080407 | 10 | 151 | 1.6 | 3.2 | 0.00 | 0.00 | 0.00 | 88 | 1022.7 |
| 20260505075902 | 10 | 149 | 0.0 | 1.6 | 0.00 | 0.00 | 0.00 | 88 | 1022.9 |
| 20260505075359 | 10 | 180 | 0.0 | 0.0 | 0.00 | 0.00 | 0.00 | 88 | 1022.7 |
| 20260505074857 | 11 | 156 | 1.6 | 3.2 | 0.00 | 0.00 | 0.00 | 87 | 1022.8 |
| 20260505074354 | 11 | 115 | 0.0 | 0.0 | 0.00 | 0.00 | 0.00 | 86 | 1022.7 |
| 20260505073851 | 11 | 226 | 3.2 | 4.8 | 0.00 | 0.00 | 0.00 | 85 | 1022.5 |
| 20260505073349 | 11 | 134 | 1.6 | 3.2 | 0.00 | 0.00 | 0.00 | 84 | 1023.0 |
| 20260505072846 | 11 | 165 | 3.2 | 3.2 | 0.00 | 0.00 | 0.00 | 83 | 1023.1 |
| 20260505072342 | 11 | 77 | 0.0 | 0.0 | 0.00 | 0.00 | 0.00 | 82 | 1022.9 |
| 20260505071838 | 11 | 239 | 3.2 | 4.8 | 0.00 | 0.00 | 0.00 | 82 | 1022.8 |
| 20260505071334 | 11 | 128 | 0.0 | 1.6 | 0.00 | 0.00 | 0.00 | 81 | 1022.7 |
| 20260505070833 | 11 | 66 | 1.6 | 3.2 | 0.00 | 0.00 | 0.00 | 81 | 1022.7 |
| 20260505070329 | 11 | 191 | 4.8 | 4.8 | 0.00 | 0.00 | 0.00 | 82 | 1022.7 |
| 20260505065824 | 11 | 223 | 4.8 | 4.8 | 0.00 | 0.00 | 0.00 | 82 | 1022.5 |
| 20260505065321 | 11 | 294 | 3.2 | 4.8 | 0.00 | 0.00 | 0.00 | 83 | 1022.7 |
| 20260505064818 | 11 | 159 | 1.6 | 1.6 | 0.00 | 0.00 | 0.00 | 83 | 1022.6 |
| 20260505064315 | 11 | 29 | 1.6 | 1.6 | 0.00 | 0.00 | 0.00 | 82 | 1022.5 |
| 20260505063814 | 11 | 146 | 0.0 | 1.6 | 0.00 | 0.00 | 0.00 | 81 | 1022.8 |
| 20260505063309 | 11 | 245 | 8.0 | 11.3 | 0.00 | 0.00 | 0.00 | 80 | 1022.6 |
| 20260505062806 | 11 | 119 | 0.0 | 0.0 | 0.00 | 0.00 | 0.00 | 80 | 1022.8 |
| 20260505062304 | 11 | 145 | 1.6 | 1.6 | 0.00 | 0.00 | 0.00 | 79 | 1022.3 |
| 20260505061800 | 11 | 182 | 1.6 | 3.2 | 0.00 | 0.00 | 0.00 | 79 | 1022.2 |
| 20260505061258 | 11 | 273 | 1.6 | 4.8 | 0.00 | 0.00 | 0.00 | 80 | 1022.2 |
| 20260505060755 | 11 | 295 | 3.2 | 4.8 | 0.00 | 0.00 | 0.00 | 81 | 1022.3 |
| 20260505060252 | 11 | 115 | 1.6 | 1.6 | 0.00 | 0.00 | 0.00 | 83 | 1022.2 |
| 20260505055747 | 11 | 153 | 0.0 | 0.0 | 0.00 | 0.00 | 0.00 | 83 | 1022.1 |
| 20260505055244 | 11 | 215 | 3.2 | 3.2 | 0.00 | 0.00 | 0.00 | 84 | 1022.1 |
| 20260505054741 | 11 | 101 | 0.0 | 0.0 | 0.00 | 0.00 | 0.00 | 83 | 1022.4 |
| 20260505054239 | 11 | 103 | 0.0 | 0.0 | 0.00 | 0.00 | 0.00 | 83 | 1022.3 |
| 20260505053737 | 11 | 108 | 0.0 | 0.0 | 0.00 | 0.00 | 0.00 | 83 | 1022.5 |
| 20260505053234 | 11 | 137 | 0.0 | 0.0 | 0.00 | 0.00 | 0.00 | 83 | 1022.6 |
| 20260505052731 | 11 | 232 | 1.6 | 3.2 | 0.00 | 0.00 | 0.00 | 83 | 1022.6 |
| 20260505052228 | 11 | 118 | 0.0 | 0.0 | 0.00 | 0.00 | 0.00 | 84 | 1022.6 |
| 20260505051725 | 11 | 124 | 0.0 | 0.0 | 0.00 | 0.00 | 0.00 | 85 | 1022.6 |
| 20260505051223 | 11 | 51 | 1.6 | 1.6 | 0.00 | 0.00 | 0.00 | 86 | 1022.7 |
| 20260505050721 | 12 | 85 | 0.0 | 1.6 | 0.00 | 0.00 | 0.00 | 85 | 1022.7 |
| 20260505050219 | 12 | 136 | 0.0 | 1.6 | 0.00 | 0.00 | 0.00 | 85 | 1023.0 |